Regional Weather Roundup
Issued by NWS

Home | Current Version | Previous Version | Graphics & Text | Print | Product List | Glossary On
Versions: 1 2 3 4 5 6 7 8 9 10 11 12 13 14 15 16 17 18 19 20 21 22 23 24 25 26 27 28 29 30 31 32 33 34 35 36 37 38 39 40 41 42 43 44 45 46 47 48 49 50
000
ASUS43 KMPX 180601
RWRMN
WEATHER ROUNDUP FOR MINNESOTA
NATIONAL WEATHER SERVICE TWIN CITIES/CHANHASSEN MN
100 AM CDT FRI AUG 18 2017


NOTE: "FAIR" INDICATES FEW OR NO CLOUDS BELOW 12,000 FEET WITH NO
SIGNIFICANT WEATHER AND/OR OBSTRUCTIONS TO VISIBILITY. N/A MEANS
CURRENT SKY AND/OR WEATHER CONDITIONS ARE NOT AVAILABLE.

MNZ060>063-068>070-180700-
   Twin Cities Metro

CITY           SKY/WX    TMP DP  RH WIND       PRES   REMARKS
TWIN CITIES    CLEAR     63  58  83 W5        29.84F
6HR MIN TEMP:  63; 6HR MAX TEMP:  72;

ST PAUL        CLEAR     62  59  90 NW6       29.83F
CRYSTAL        CLEAR     59  55  87 CALM      29.83S
BLAINE         CLEAR     61  61 100 W3        29.83F
LAKEVILLE      CLEAR     59  59 100 CALM      29.85S
EDEN PRAIRIE   CLEAR     62  60  93 W5        29.84S
6HR MIN TEMP:  62; 6HR MAX TEMP:  73;

SOUTH ST PAUL  CLEAR     63  59  86 CALM      29.83S
LAKE ELMO      FAIR      61  59  94 W3        29.84F
$$
MNZ001>005-007-008-013>017-022>024-027-028-180700-
   Northwest Minnesota

CITY           SKY/WX    TMP DP  RH WIND       PRES   REMARKS
BEMIDJI        CLEAR     53  52  96 CALM      29.84F FOG
HALLOCK        CLEAR     55  54  94 CALM      29.82F
ROSEAU         CLEAR     57  52  82 CALM      29.83S
WARROAD        CLEAR     57  54  88 CALM      29.83S
CROOKSTON      CLEAR     61  57  88 CALM      29.84F
FOSSTON        CLEAR     54  52  94 S3        29.85F
DETROIT LAKES  PTCLDY    61  59  94 CALM      29.87F
MOORHEAD       CLEAR     63  57  82 CALM      29.85F
PARK RAPIDS    CLEAR     57  54  89 W5        29.85S
MAHNOMEN       FAIR      58  57  95 S3        29.85S
$$
MNZ006-009>011-018-025>026-180700-
   North Central Minnesota

CITY           SKY/WX    TMP DP  RH WIND       PRES   REMARKS
BAUDETTE       CLEAR     55  54  96 W3        29.82R
FLAG ISLAND    CLEAR     64  55  72 CALM      29.80S
INTL FALLS     PTCLDY    49  48  97 CALM      29.82S
6HR MIN TEMP:  49; 6HR MAX TEMP:  57;

WASKISH        CLEAR     54  52  94 CALM      29.83F
BIG FORK       CLEAR     52  50  93 CALM      29.83S FOG
LONGVILLE      FOG       52  52 100 CALM      29.83F VSB 1/4
GRAND RAPIDS   CLEAR     56  54  93 CALM      29.84F
CRANE LAKE     FOG       50  48  93 CALM      29.82S VSB 1
ORR            CLEAR     54  52  94 CALM      29.79S
COOK           FOG       52  52 100 CALM      29.82S VSB 1/2
WALKER         FOG       54  54  99 CALM      29.84F VSB 1
$$
MNZ012-019>021-037-180700-
   Northeast Minnesota

CITY           SKY/WX    TMP DP  RH WIND       PRES   REMARKS
DULUTH         CLEAR     59  58  96 NW9       29.79R
6HR MIN TEMP:  59; 6HR MAX TEMP:  61; 6HR PCP: TRACE;

ELY            CLOUDY    59  57  94 NW5       29.79S
HIBBING        CLEAR     51  51 100 CALM      29.82R
EVELETH        CLEAR     58  54  88 CALM      29.82S
DULUTH HARBOR  CLEAR     64  61  88 NW9       29.79R
TWO HARBORS    MOCLDY    64  61  88 CALM      29.75R
GRAND MARAIS     N/A     63  60  90 CALM      29.69S
$$
MNZ029>031-032-039>041-046>048-054>057-064-180700-
   West Central Minnesota

CITY           SKY/WX    TMP DP  RH WIND       PRES   REMARKS
FERGUS FALLS   CLOUDY    61  61 100 CALM      29.87R
WHEATON        MOCLDY    63  59  88 SW3       29.89S
MORRIS         PTCLDY    63  61  94 W8        29.88R
ALEXANDRIA     CLOUDY    60  59  96 SW5       29.89S
ELBOW LAKE     MOCLDY    59  59  99 SW3       29.88S
WADENA         CLEAR     57  57 100 CALM      29.86S
GLENWOOD       CLEAR     61  59  94 W6        29.89R
APPLETON       MOCLDY    63  61  94 W3        29.88S
BENSON         PTCLDY    61  57  88 CALM      29.91R
ORTONVILLE     CLOUDY    63  59  88 MISG      29.89S
MADISON        CLOUDY    64  64 100 SW7       29.91R
WILLMAR        FAIR      63  61  94 CALM      29.90S
$$
MNZ033>034-036-042>043-049>051-058-059-180700-
   Central Minnesota

CITY           SKY/WX    TMP DP  RH WIND       PRES   REMARKS
ST CLOUD       CLEAR     57  57 100 CALM      29.85S
6HR MIN TEMP:  56; 6HR MAX TEMP:  71;

SAUK CENTRE    FAIR      56  56  99 CALM      29.88S
PAYNESVILLE    CLEAR     56  56 100 W3        29.89R FOG
AITKIN         FOG       48  46  93 CALM      29.81F VSB 1/4
PINE RIVER     PTCLDY    52  52 100 CALM      29.88S
BRAINERD       CLEAR     55  54  96 SW5       29.84S
STAPLES        CLEAR     55  55 100 CALM      29.86R
LONG PRAIRIE   FAIR      55  54  94 CALM      29.88R
LITTLE FALLS   CLEAR     54  52  94 CALM      29.86R
LITCHFIELD     CLEAR     63  61  94 CALM      29.89R
BUFFALO        CLEAR     58  55  92 CALM      29.87R
MAPLE LAKE     CLEAR     57  57  99 W5        29.87R FOG
HUTCHINSON     CLEAR     59  59 100 SW5       29.90R
$$
MNZ037-044-045-052-053-180700-
   East Central Minnesota

CITY           SKY/WX    TMP DP  RH WIND       PRES   REMARKS
PRINCETON      CLEAR     55  54  94 CALM      29.84S FOG
MORA             N/A     54  54 100 CALM      29.84F FOG
RUSH CITY      HVY RAIN  55  54  95 CALM      29.83F
MOOSE LAKE     CLEAR     57  54  88 NW3       29.80F
HINCKLEY       FAIR      59  57  94 CALM      29.82F
CLOQUET        CLEAR     57  55  94 W9        29.80S
MCGREGOR       CLEAR     55  54  94 CALM      29.83F
$$
MNZ071>073-080-081-089-090-097-098-180700-
   Southwest Minnesota

CITY           SKY/WX    TMP DP  RH WIND       PRES   REMARKS
MONTEVIDEO     PTCLDY    63  61  94 CALM      29.89F
GRANITE FALLS  CLOUDY    61  60  96 SW5       29.90F
CANBY          CLOUDY    65  60  83 CALM      29.92F
MARSHALL       MOCLDY    61  57  87 W10       29.93R
REDWOOD FALLS  CLEAR     63  59  87 W3        29.89R
OLIVIA         CLEAR     59  57  94 CALM      29.89S
PIPESTONE      CLOUDY    66  59  77 NW8       29.96R
WINDOM         CLEAR     57  55  94 CALM      29.91F
WORTHINGTON    CLOUDY    59  56  89 CALM      29.92F
JACKSON        CLEAR     57  55  94 CALM      29.91F
TRACY          CLOUDY    63  60  89 CALM      29.90F
SLAYTON        PTCLDY    58  52  82 CALM      29.92F
$$
MNZ065>067-074>077-082>085-091>093-180700-
   South Central Minnesota

CITY           SKY/WX    TMP DP  RH WIND       PRES   REMARKS
MANKATO        CLEAR     61  59  93 CALM      29.88R
NEW ULM        CLEAR     61  59  94 W6        29.89R
ST JAMES       CLEAR     61  57  88 W3        29.90S
FAIRMONT       CLEAR     61  59  93 W3        29.90S
GLENCOE        CLEAR     62  62 100 W5        29.88R
FARIBAULT      CLEAR     61  57  88 CALM      29.87R
OWATONNA       CLEAR     57  55  94 W6        29.87S
WASECA         CLEAR     55  55 100 CALM      29.89S FOG
ALBERT LEA     CLEAR     64  63  94 W3        29.89R
$$
MNZ078>079-086>088-094>096-180700-
   Southeast Minnesota

CITY           SKY/WX    TMP DP  RH WIND       PRES   REMARKS
ROCHESTER      CLEAR     61  60  97 NW8       29.86S
6HR MIN TEMP:  61; 6HR MAX TEMP:  70;

RED WING       PTCLDY    66  57  72 NW5       29.82S
STANTON        CLEAR     60  58  92 CALM      29.83F
DODGE CENTER   CLEAR     63  59  88 W6        29.86S
WINONA         CLOUDY    70  61  73 NW8       29.81S
AUSTIN         CLEAR     63  61  94 W5        29.87R
PRESTON        CLOUDY    64  60  86 NW7       29.86S
$$
ABBREVIATIONS USED IN REMARKS
   TC - TEMPERATURES IN CELSIUS
  WCI - WIND CHILL INDEX
   HX - HEAT INDEX
  VSB - VISIBILITY
$$




USA.gov is the U.S. government's official web portal to all federal, state and local government web resources and services.